Vertical_Velocity
-6 -3 -5 -9 -5 -1 -2 -1 2 4 7 5 7 -6 -12 -8 1 3 5 2 1 0 1 -1 -1 -0 -1 -1 -1 0 -0 6 5 -8 -4 -8 -6 -2 -6 -4 -4 -6 -4
-0 2 -3 -6 -8 -2 2 1 2 7 -5 -11 -3 -0 -2 -4 -1 1 -1 1 1 -1 -3 -4 -5 -4 -2 -1 0 -2 -1 -1 8 2 2 -5 -4 -5 0 -4 -5 -3 -3
-2 -5 -7 -7 1 5 10 8 6 4 3 7 1 1 2 2 -0 -1 0 -1 -2 -2 -2 -3 -3 -2 -3 -2 1 0 0 0 1 3 -4 0 -6 -7 -6 -0 -5 -8 -5
-5 -5 -6 -4 7 7 8 10 6 9 0 3 -0 -4 3 2 2 1 1 1 -1 -2 -3 1 2 2 1 -0 -1 -0 0 -2 3 0 2 -0 1 -8 -6 -7 -9 -3 -11
-4 -5 1 4 4 6 2 -4 3 2 -10 -13 0 1 3 3 0 -7 -8 -7 -4 -4 -4 -1 0 -1 -0 2 1 -0 2 3 4 3 -1 -1 -1 -3 -6 -8 -6 -4 -8
-1 -4 -0 7 11 4 -3 -15 -13 -8 -4 1 2 0 -1 -2 -1 2 4 1 -0 -1 -4 -2 -3 -3 -2 0 0 3 6 3 1 3 -3 -3 -2 -5 -1 -4 -2 3 -8
-1 -3 -3 -2 1 1 0 3 6 5 3 -1 -0 -0 -1 -0 0 -0 -0 -3 -3 -2 -1 -2 -2 -1 1 0 -2 0 1 3 8 5 2 -5 -1 -1 3 1 -4 -2 -3
4 2 2 3 1 -2 -0 3 4 2 2 1 -1 -0 -0 -0 0 -2 -1 -1 -0 0 0 1 0 -2 1 2 -1 -4 -5 -1 -2 1 5 0 0 2 3 -2 0 -3 1
4 -2 -5 -9 -9 1 2 2 2 1 1 -1 -0 -0 -0 -3 -0 -2 -1 -1 -0 -2 1 1 2 -2 -2 2 5 1 -1 -4 3 1 2 -3 -2 0 1 7 -2 9 -2
-5 -3 1 -0 -0 1 1 2 2 1 -1 -0 -0 2 -0 -4 -1 -0 0 0 -3 -2 1 -1 -1 -1 -1 1 2 3 -0 -6 7 -1 -4 -1 2 -0 3 3 7 1 2
-2 1 2 1 0 1 2 1 -1 -0 2 2 -0 0 -1 0 -2 1 1 2 -0 -3 -1 -4 -2 1 2 3 8 1 -2 4 -1 3 1 -2 -3 -1 -1 3 0 6 5
1 4 2 -0 -1 -1 -0 1 1 0 0 -2 -3 -4 1 -2 2 -1 1 2 2 3 -1 4 -2 -7 -1 -0 0 1 1 1 -0 0 3 1 1 -2 -3 2 3 3 2
2 1 1 0 -0 0 -0 -1 -1 0 -1 -2 -2 -4 -5 -4 -1 1 1 -1 -1 -2 3 1 7 -0 -4 -0 2 0 -0 1 3 4 3 2 0 1 6 3 1 2 1
2 1 2 1 1 1 2 1 -0 -2 -1 -1 -3 -4 -3 -3 -1 -2 -2 -2 -1 1 -0 -1 -0 -2 1 4 2 5 3 3 4 4 2 3 3 3 -1 2 2 0 5
1 -0 -1 -1 -0 -0 0 -4 -3 2 0 -2 -0 1 -2 -5 -3 4 1 -2 3 3 1 1 -3 -2 -0 -1 2 2 2 2 0 1 2 -0 2 2 1 3 3 8 -0
1 -1 -1 -1 -1 -1 -3 -3 2 0 1 -1 -0 3 -2 2 1 -0 0 2 2 1 1 -3 -3 -0 1 -1 -2 -1 2 0 -2 -2 0 -0 -1 -3 -1 0 -1 2 -2
-1 -0 1 1 -2 -2 -1 -2 -4 -2 -1 0 -0 0 0 1 1 -0 -0 3 3 2 -1 -1 -2 2 1 1 -1 -1 -0 0 2 0 -1 -1 1 4 1 2 4 4 -0
-1 -1 -1 -1 -0 -1 -0 0 1 -2 -4 -4 -0 -1 -1 -0 0 -0 -0 2 3 0 -1 -1 -1 2 -0 -0 -1 -0 1 0 1 1 4 1 -1 -1 -1 0 2 3 2
-1 -1 -2 -0 -0 -1 -1 1 0 -0 0 -1 -3 3 -1 -0 1 1 2 0 -0 -1 -0 0 2 1 1 2 2 4 2 2 1 0 1 1 0 -1 -1 -1 1 1 -1
0 0 -2 -3 -2 -1 0 -0 -1 -0 -1 -1 -1 -2 -2 -2 -2 -2 -1 1 2 -0 -0 1 2 3 1 2 2 1 2 -1 -0 -1 -1 -0 0 -0 -1 -1 -1 -2 -1
-0 1 -3 -2 1 0 -0 -1 -1 -0 -0 -1 -0 -1 -0 0 -0 -1 -1 -1 0 -0 -0 0 2 1 1 1 2 2 2 2 -1 -1 -1 -1 -0 1 -0 0 -1 -3 -3
0 -0 -2 -0 0 -0 0 -0 0 0 0 -1 -1 -1 -0 1 0 -0 0 0 -0 -0 -0 -1 0 -0 0 -1 -1 1 1 2 1 1 1 1 0 -1 1 -0 -1 1 0
-1 1 0 1 -0 -1 0 0 -0 -0 0 -0 -1 -0 -1 -0 -0 -0 -0 0 0 -1 -2 0 0 1 1 -0 0 0 -1 -1 0 2 3 1 -0 -2 -0 1 0 -2 -2
-1 -0 -0 -1 -1 -0 0 0 -0 0 -0 -0 0 0 0 0 0 0 -0 -1 -1 -1 0 0 -0 -0 -0 0 1 1 1 1 -0 1 2 2 0 1 -1 -1 0 -0 0
-2 -2 -2 -2 -1 -1 0 -0 -0 0 0 -0 0 0 0 -0 0 1 -1 -2 -1 -0 0 -0 -0 -1 -1 -0 1 1 1 2 -0 -0 2 0 -1 -2 -0 -0 -1 0 -0
-1 -2 -1 -1 -1 -1 -0 1 -0 0 0 -0 0 1 -0 -0 -1 -1 -0 0 0 -0 -0 0 0 -0 1 1 -1 -0 0 1 -1 0 -1 2 1 -2 -2 -1 0 -1 -1
Height
1481 1477 1470 1465 1462 1457 1455 1452 1449 1447 1446 1446 1446 1444 1444 1444 1444 1444 1443 1442 1441 1440 1439 1437 1434 1434 1432 1431 1430 1429 1427 1427 1420 1418 1420 1421 1420 1421 1420 1419 1419 1418 1418
1477 1471 1465 1459 1455 1452 1450 1449 1448 1447 1447 1445 1445 1442 1441 1441 1441 1439 1437 1437 1434 1433 1431 1430 1427 1426 1424 1422 1421 1420 1419 1418 1415 1408 1411 1411 1411 1411 1410 1410 1410 1410 1410
1472 1467 1462 1457 1452 1450 1448 1445 1445 1446 1445 1443 1441 1440 1439 1438 1436 1435 1432 1430 1428 1426 1424 1422 1419 1418 1415 1414 1413 1410 1409 1407 1406 1403 1399 1401 1401 1402 1400 1399 1398 1398 1399
1465 1459 1454 1451 1449 1447 1448 1446 1442 1442 1441 1440 1438 1437 1436 1434 1431 1428 1426 1423 1420 1418 1416 1414 1411 1409 1406 1404 1401 1399 1397 1395 1393 1392 1389 1389 1390 1391 1391 1389 1386 1387 1387
1459 1455 1449 1446 1445 1442 1440 1441 1439 1438 1438 1438 1436 1433 1431 1428 1425 1422 1419 1416 1413 1409 1407 1403 1400 1397 1394 1392 1389 1386 1385 1383 1382 1381 1380 1379 1379 1380 1380 1381 1378 1378 1376
1455 1451 1449 1446 1442 1441 1441 1439 1436 1435 1434 1433 1431 1429 1425 1421 1418 1415 1412 1407 1404 1400 1395 1392 1389 1386 1383 1381 1379 1378 1377 1375 1373 1373 1372 1370 1370 1371 1371 1372 1371 1370 1367
1453 1450 1446 1444 1442 1441 1440 1439 1435 1433 1432 1430 1426 1423 1419 1415 1411 1407 1403 1399 1395 1390 1386 1382 1378 1376 1373 1370 1367 1366 1365 1364 1364 1363 1361 1361 1360 1361 1362 1362 1362 1362 1360
1449 1447 1447 1444 1441 1440 1439 1437 1433 1430 1427 1424 1420 1416 1412 1408 1404 1400 1395 1390 1386 1382 1379 1375 1371 1367 1365 1362 1359 1355 1353 1353 1352 1351 1350 1350 1350 1352 1352 1353 1353 1353 1353
1447 1445 1444 1442 1441 1439 1436 1432 1429 1426 1422 1418 1414 1410 1405 1402 1397 1392 1388 1383 1378 1374 1371 1368 1365 1360 1358 1355 1350 1346 1343 1341 1341 1339 1339 1339 1340 1341 1343 1344 1344 1345 1343
1446 1445 1443 1440 1438 1436 1432 1428 1424 1420 1416 1413 1409 1405 1400 1395 1391 1387 1382 1377 1372 1368 1365 1361 1358 1354 1350 1346 1343 1338 1334 1331 1330 1329 1329 1329 1330 1331 1333 1334 1336 1335 1337
1447 1445 1442 1438 1435 1432 1428 1423 1419 1416 1412 1408 1403 1399 1395 1391 1386 1382 1377 1373 1368 1363 1359 1355 1351 1347 1342 1338 1335 1330 1326 1324 1322 1320 1320 1320 1320 1321 1322 1323 1325 1327 1329
1445 1443 1440 1436 1432 1428 1423 1419 1415 1411 1407 1403 1398 1394 1390 1386 1382 1377 1372 1369 1365 1360 1355 1351 1346 1341 1335 1330 1325 1320 1317 1315 1314 1313 1312 1311 1311 1311 1312 1314 1316 1318 1321
1444 1440 1436 1432 1428 1424 1419 1415 1412 1408 1403 1399 1394 1389 1384 1381 1377 1373 1368 1364 1360 1356 1353 1348 1343 1336 1330 1325 1320 1315 1311 1309 1307 1306 1304 1302 1302 1303 1305 1307 1309 1311 1314
1440 1436 1432 1428 1424 1421 1417 1413 1409 1405 1401 1396 1391 1387 1382 1378 1373 1368 1364 1360 1356 1353 1349 1344 1339 1334 1328 1323 1318 1313 1310 1307 1305 1302 1297 1295 1296 1297 1299 1301 1303 1306 1308
1437 1433 1429 1425 1421 1418 1414 1411 1407 1404 1399 1394 1390 1385 1380 1374 1370 1367 1362 1357 1353 1350 1346 1342 1337 1331 1326 1321 1317 1313 1310 1306 1303 1299 1296 1294 1294 1295 1295 1297 1299 1301 1303
1434 1430 1426 1422 1419 1415 1411 1408 1406 1401 1397 1393 1389 1384 1379 1374 1369 1364 1359 1355 1351 1348 1345 1341 1336 1331 1326 1321 1317 1313 1310 1305 1302 1300 1297 1296 1295 1294 1294 1295 1296 1298 1299
1431 1427 1423 1419 1416 1412 1409 1405 1400 1397 1394 1390 1386 1381 1377 1372 1367 1362 1357 1353 1350 1347 1344 1341 1337 1332 1327 1323 1318 1315 1310 1307 1304 1301 1299 1297 1295 1294 1294 1293 1294 1294 1295
1428 1424 1420 1417 1414 1410 1406 1403 1399 1394 1390 1386 1383 1379 1375 1370 1365 1361 1356 1353 1350 1347 1344 1341 1338 1333 1329 1325 1321 1316 1312 1309 1306 1303 1301 1299 1297 1296 1294 1293 1293 1293 1293
1425 1421 1418 1414 1411 1407 1404 1401 1397 1393 1389 1385 1381 1378 1373 1369 1365 1361 1357 1353 1350 1347 1344 1342 1339 1335 1332 1327 1324 1319 1314 1310 1308 1305 1302 1300 1298 1297 1296 1295 1294 1293 1294
1422 1419 1416 1412 1409 1405 1402 1399 1395 1392 1388 1384 1380 1376 1372 1368 1364 1361 1358 1354 1351 1349 1346 1343 1340 1337 1334 1330 1326 1322 1317 1313 1309 1307 1305 1302 1300 1298 1297 1296 1295 1295 1295
1419 1417 1414 1411 1407 1403 1400 1396 1393 1390 1387 1383 1380 1376 1372 1369 1365 1362 1359 1356 1353 1350 1348 1345 1342 1339 1336 1333 1329 1325 1321 1317 1314 1311 1308 1306 1303 1301 1299 1298 1297 1297 1296
1416 1414 1411 1408 1405 1401 1398 1395 1392 1389 1386 1383 1379 1376 1372 1369 1366 1363 1360 1357 1354 1352 1350 1348 1345 1341 1338 1335 1331 1328 1324 1321 1317 1314 1311 1308 1306 1304 1302 1301 1300 1299 1299
1412 1411 1409 1406 1402 1399 1396 1393 1390 1387 1384 1382 1379 1375 1372 1369 1366 1363 1361 1358 1355 1353 1351 1349 1346 1344 1341 1338 1334 1331 1327 1324 1321 1318 1315 1312 1309 1307 1306 1304 1303 1302 1302
1410 1408 1406 1403 1400 1398 1395 1392 1389 1386 1383 1380 1378 1375 1372 1369 1367 1364 1361 1359 1357 1355 1352 1350 1347 1345 1342 1340 1337 1334 1331 1328 1325 1322 1319 1316 1314 1312 1310 1308 1307 1306 1305
1407 1406 1404 1401 1398 1396 1393 1391 1387 1385 1382 1380 1377 1374 1372 1369 1367 1365 1363 1361 1359 1356 1354 1352 1349 1347 1344 1342 1339 1336 1334 1331 1328 1325 1322 1320 1318 1316 1314 1312 1311 1310 1309
1404 1403 1402 1399 1397 1394 1392 1389 1387 1384 1381 1379 1376 1374 1372 1370 1368 1366 1365 1363 1360 1358 1356 1353 1351 1349 1346 1344 1341 1338 1336 1334 1331 1328 1326 1324 1321 1319 1318 1317 1315 1314 1313